[[{"header":{"parameterUnit":"m.s-1","parameterCategory":1,"la1":30.2991,"la2":30.254,"lo1":-89.0895,"lo2":-89.0444,"dy":0.0017,"dx":0.0017,"nx":28,"ny":28,"refTime":"2025-02-13T09:00:00:Z","depth":0,"parameterNumber":2,"parameterNumberName":"U-component_of_WINDS"},"data":[0,0,0,0,0,0,0,0,0,0,0,0,0,0,0,0,0,0,0,0,0,0,0,0,0,0,0,0,0,0,0,0,0,0,0,0,0,0,0,0,0,0,0,0,0,0,0,0,0,0,0,0,0,0,0,0,0,0,-0.2814,-0.2815,0,-0.2839,-0.2839,-0.284,-0.2837,-0.2836,-0.2836,-0.2836,-0.2862,-0.2863,-0.2864,0,0,0,0,0,0,0,0,0,0,0,0,0,-0.2765,-0.2766,-0.2814,-0.2815,-0.2815,-0.2839,-0.2839,-0.284,-0.2837,-0.2836,-0.2836,-0.2835,-0.2862,-0.2863,-0.2864,0,0,0,0,0,0,0,0,0,0,0,0,0,-0.2788,-0.2766,-0.2814,-0.2816,-0.2817,-0.2839,-0.2839,-0.284,-0.2837,-0.2836,-0.2836,-0.2835,-0.2861,-0.2863,-0.2864,-0.2886,0,0,-0.2869,-0.287,0,0,0,0,0,0,0,0,-0.2786,-0.279,-0.2816,-0.2816,-0.2817,-0.2834,-0.2832,-0.2855,-0.2837,-0.2829,-0.2836,-0.2835,-0.2853,-0.2856,-0.2862,-0.2887,-0.2889,-0.2869,-0.287,-0.2871,-0.2872,0,0,0,0,0,0,0,-0.2785,-0.2788,-0.2824,-0.2816,-0.2817,-0.2816,-0.2819,-0.2836,-0.2844,-0.283,-0.283,-0.2833,-0.2854,-0.286,-0.2862,-0.2889,-0.2869,-0.2871,-0.2872,-0.2872,-0.2933,-0.2934,0,0,0,0,0,0,-0.2783,-0.2787,-0.2823,-0.2825,-0.28,-0.2818,-0.282,-0.2829,-0.2844,-0.2846,-0.2833,-0.2833,-0.2858,-0.286,-0.2863,-0.2889,-0.2871,-0.2873,-0.2874,-0.2933,-0.2933,-0.2934,0,0,0,0,0,0,-0.2782,-0.2786,-0.2822,-0.2806,-0.2811,-0.2819,-0.2829,-0.283,-0.2837,-0.2847,-0.2848,-0.2838,-0.2857,-0.2861,-0.288,-0.289,-0.2873,-0.2875,-0.2932,-0.2933,-0.2934,-0.2942,0,0,0,0,0,0,-0.278,-0.2786,-0.2794,-0.2806,-0.2811,-0.2839,-0.283,-0.2831,-0.2839,-0.2838,-0.2852,-0.2853,-0.2857,-0.2878,-0.2882,-0.2892,-0.2876,-0.2931,-0.2932,-0.2934,-0.2941,-0.2944,-0.2945,0,0,0,0,0,-0.2778,-0.2796,-0.2794,-0.2799,-0.2822,-0.284,-0.2843,-0.2846,-0.284,-0.2849,-0.2855,-0.2853,-0.2888,-0.288,-0.2884,-0.2895,-0.2931,-0.2932,-0.2933,-0.294,-0.2943,-0.2945,0,0,0,0,0,0,-0.2785,-0.2797,-0.2796,-0.2818,-0.2828,-0.2839,-0.285,-0.2849,-0.2861,-0.286,-0.2864,-0.2867,-0.2887,-0.2893,-0.2883,-0.2917,-0.2909,-0.2911,-0.2912,-0.2915,-0.2917,-0.2916,-0.2877,0,0,0,0,0,-0.2789,-0.2802,-0.2812,-0.283,-0.2835,-0.2842,-0.285,-0.2851,-0.2862,-0.2866,-0.2874,-0.2884,-0.2898,-0.2907,-0.2919,-0.2942,-0.2945,-0.2951,-0.2953,-0.2955,-0.2957,-0.2969,-0.2972,-0.2939,-0.2939,-0.2939,0,0,-0.2798,-0.2806,-0.2814,-0.2832,-0.284,-0.2853,-0.2845,-0.286,-0.287,-0.2868,-0.2887,-0.2893,-0.2905,-0.2926,-0.2936,-0.2932,-0.2967,-0.2957,-0.2958,-0.296,-0.2971,-0.2974,-0.2977,-0.294,-0.294,-0.294,0,0,-0.282,-0.2828,-0.2843,-0.2851,-0.2863,-0.2867,-0.287,-0.2882,-0.2886,-0.2904,-0.2903,-0.2915,-0.2938,-0.2946,-0.2954,-0.2978,-0.2977,-0.2982,-0.2993,-0.3005,-0.3007,-0.301,-0.3018,-0.3021,-0.2984,-0.2984,-0.2984,0,-0.283,-0.285,-0.2852,-0.2867,-0.2875,-0.2872,-0.2888,-0.2896,-0.2911,-0.2917,-0.2912,-0.294,-0.2948,-0.2971,-0.2976,-0.2982,-0.2987,-0.2981,-0.3007,-0.3009,-0.3011,-0.302,-0.3023,-0.2985,-0.2984,-0.2984,-0.2984,0,-0.2861,-0.2874,-0.2886,-0.29,-0.2909,-0.2924,-0.2929,-0.2938,-0.2938,-0.2942,-0.2961,-0.297,-0.2985,-0.299,-0.2991,-0.3013,-0.301,-0.3006,-0.2998,-0.3015,-0.3023,-0.3026,-0.2985,-0.2985,-0.2985,-0.2985,0,0,-0.2889,-0.2904,-0.2908,-0.2914,-0.2926,-0.2937,-0.2952,-0.2965,-0.2973,-0.2983,-0.2996,-0.3015,-0.3011,-0.3019,-0.302,-0.303,-0.3049,-0.3025,-0.3026,-0.303,-0.3073,-0.3077,-0.308,-0.3048,-0.3048,-0.3049,-0.3072,0,-0.2913,-0.294,-0.2942,-0.2965,-0.2978,-0.2976,-0.2988,-0.2997,-0.3001,-0.3013,-0.3017,-0.3031,-0.3024,-0.3029,-0.3039,-0.3045,-0.3058,-0.3043,-0.306,-0.306,-0.3058,-0.3084,-0.3088,-0.311,-0.3075,-0.3076,-0.3076,0,-0.2945,-0.2956,-0.2981,-0.299,-0.2996,-0.3007,-0.302,-0.303,-0.304,-0.3042,-0.3051,-0.305,-0.3066,-0.3056,-0.3077,-0.3067,-0.3073,-0.3077,-0.3078,-0.308,-0.307,-0.3088,-0.3117,-0.3121,-0.3081,-0.3081,-0.308,0,-0.2964,-0.2985,-0.3002,-0.3007,-0.3019,-0.3027,-0.3032,-0.3041,-0.3049,-0.3059,-0.3064,-0.3077,-0.3083,-0.3093,-0.3096,-0.3089,-0.3117,-0.3107,-0.3119,-0.3119,-0.3126,-0.3126,-0.3157,-0.3129,-0.3129,-0.3129,-0.3129,0,-0.2991,-0.3007,-0.3011,-0.3021,-0.3038,-0.304,-0.3057,-0.3061,-0.3069,-0.3081,-0.3079,-0.309,-0.3093,-0.3104,-0.3107,-0.3123,-0.3127,-0.3129,-0.3129,-0.3129,-0.3129,-0.3135,-0.3133,-0.313,-0.313,-0.313,-0.3129,0,-0.3016,-0.3019,-0.3038,-0.3047,-0.3049,-0.3061,-0.3069,-0.3079,-0.3082,-0.3097,-0.3101,-0.3106,-0.3119,-0.3123,-0.3139,-0.314,-0.316,-0.3159,-0.3157,-0.3157,-0.3169,-0.3168,-0.3205,-0.321,-0.3179,-0.3179,-0.3179,0,-0.3033,-0.3045,-0.3055,-0.3062,-0.3067,-0.3079,-0.3087,-0.3089,-0.3097,-0.3108,-0.3117,-0.3129,-0.314,-0.3161,-0.3166,-0.3178,-0.3178,-0.319,-0.318,-0.3179,-0.3178,-0.3178,-0.3179,-0.3192,-0.3193,-0.3193,-0.3193,0,-0.3064,-0.3064,-0.3075,-0.3087,-0.3096,-0.3105,-0.3113,-0.312,-0.3122,-0.3131,-0.3144,-0.3152,-0.3168,-0.3181,-0.3193,-0.3198,-0.3196,-0.3196,-0.32,-0.32,-0.3198,-0.32,-0.3163,-0.3196,-0.3195,-0.3195,-0.3195,-0.3195,-0.3086,-0.3096,-0.3104,-0.3116,-0.3122,-0.313,-0.314,-0.3144,-0.3155,-0.3168,-0.3168,-0.3182,-0.3191,-0.3206,-0.3212,-0.3223,-0.3219,-0.3224,-0.3226,-0.3227,-0.3228,-0.3196,-0.3225,-0.3225,-0.3225,-0.3225,-0.3225,0,-0.3116,-0.3121,-0.3132,-0.3144,-0.3153,-0.315,-0.3159,-0.3167,-0.3179,-0.3187,-0.3197,-0.3212,-0.3224,-0.323,-0.3241,-0.3249,-0.3249,-0.3252,-0.3252,-0.3253,-0.3231,-0.3227,-0.3253,-0.3253,-0.3253,-0.3253,-0.3253,-0.3253,-0.3134,-0.315,-0.3152,-0.3171,-0.3176,-0.319,-0.3195,-0.3202,-0.3209,-0.3225,-0.3235,-0.3238,-0.3245,-0.3257,-0.3268,-0.3269,-0.3274,-0.3278,-0.3279,-0.3258,-0.3255,-0.3252,-0.3249,-0.3279,-0.3279,-0.3301,-0.3301,-0.3301]},{"header":{"parameterUnit":"m.s-1","parameterCategory":1,"la1":30.2991,"la2":30.254,"lo1":-89.0895,"lo2":-89.0444,"dy":0.0017,"dx":0.0017,"nx":28,"ny":28,"refTime":"2025-02-13T09:00:00:Z","depth":0,"parameterNumber":3,"parameterNumberName":"V-component_of_WINDS"},"data":[0,0,0,0,0,0,0,0,0,0,0,0,0,0,0,0,0,0,0,0,0,0,0,0,0,0,0,0,0,0,0,0,0,0,0,0,0,0,0,0,0,0,0,0,0,0,0,0,0,0,0,0,0,0,0,0,0,0,-7.6836,-7.6837,0,-7.691,-7.6911,-7.6912,-7.6837,-7.6834,-7.6831,-7.6828,-7.6898,-7.6903,-7.6907,0,0,0,0,0,0,0,0,0,0,0,0,0,-7.6625,-7.6629,-7.6836,-7.6837,-7.6838,-7.691,-7.6911,-7.6912,-7.6838,-7.6834,-7.683,-7.6827,-7.6897,-7.6902,-7.6908,0,0,0,0,0,0,0,0,0,0,0,0,0,-7.6709,-7.663,-7.6836,-7.6809,-7.6808,-7.691,-7.6911,-7.6912,-7.6838,-7.6834,-7.683,-7.6825,-7.6895,-7.6902,-7.6909,-7.7039,0,0,-7.693,-7.6933,0,0,0,0,0,0,0,0,-7.6705,-7.6717,-7.6812,-7.6811,-7.681,-7.686,-7.6862,-7.6955,-7.6839,-7.6827,-7.6828,-7.6823,-7.6889,-7.6896,-7.6919,-7.7042,-7.7045,-7.693,-7.6934,-7.6937,-7.6939,0,0,0,0,0,0,0,-7.6699,-7.6713,-7.6865,-7.6814,-7.6812,-7.6792,-7.68,-7.6879,-7.6881,-7.6827,-7.6822,-7.6832,-7.6887,-7.6913,-7.692,-7.7046,-7.693,-7.6936,-7.694,-7.6943,-7.728,-7.7285,0,0,0,0,0,0,-7.6697,-7.6709,-7.6863,-7.6867,-7.6746,-7.68,-7.6808,-7.6848,-7.688,-7.6881,-7.6836,-7.6828,-7.6903,-7.6912,-7.6923,-7.7078,-7.6937,-7.6944,-7.6948,-7.7276,-7.7281,-7.7287,0,0,0,0,0,0,-7.6692,-7.6711,-7.686,-7.6787,-7.6804,-7.6808,-7.6854,-7.6852,-7.6878,-7.6887,-7.6886,-7.6862,-7.69,-7.6913,-7.7011,-7.7079,-7.6947,-7.6953,-7.727,-7.7277,-7.7284,-7.739,0,0,0,0,0,0,-7.6687,-7.671,-7.676,-7.6789,-7.6809,-7.6949,-7.6858,-7.6857,-7.689,-7.6881,-7.6911,-7.6912,-7.6898,-7.7001,-7.7018,-7.7087,-7.6958,-7.7264,-7.7273,-7.7282,-7.738,-7.74,-7.7417,0,0,0,0,0,-7.6679,-7.6785,-7.6763,-7.6782,-7.6872,-7.6953,-7.6964,-7.6948,-7.6896,-7.6946,-7.6952,-7.6911,-7.7069,-7.7012,-7.703,-7.7102,-7.7259,-7.727,-7.7281,-7.7372,-7.7396,-7.7416,0,0,0,0,0,0,-7.6762,-7.6788,-7.6764,-7.6883,-7.6917,-7.694,-7.7003,-7.6973,-7.702,-7.701,-7.6985,-7.6992,-7.7097,-7.7109,-7.7045,-7.723,-7.7156,-7.7171,-7.7219,-7.7241,-7.7259,-7.7254,-7.6964,0,0,0,0,0,-7.6795,-7.686,-7.6879,-7.6982,-7.7,-7.6999,-7.7033,-7.7018,-7.7051,-7.7064,-7.7077,-7.7109,-7.7166,-7.7204,-7.7257,-7.7381,-7.7387,-7.744,-7.7458,-7.7473,-7.7486,-7.7554,-7.7578,-7.7322,-7.7322,-7.7322,0,0,-7.6861,-7.6884,-7.6926,-7.6999,-7.7023,-7.7091,-7.7011,-7.7085,-7.7134,-7.7075,-7.7169,-7.718,-7.7214,-7.7327,-7.7377,-7.734,-7.7558,-7.7487,-7.7498,-7.7504,-7.7568,-7.7592,-7.7613,-7.733,-7.7328,-7.7327,0,0,-7.7018,-7.7042,-7.7131,-7.7158,-7.7197,-7.7196,-7.7218,-7.7247,-7.7252,-7.7347,-7.7305,-7.7362,-7.746,-7.7487,-7.7514,-7.7683,-7.7647,-7.7701,-7.7796,-7.7862,-7.7882,-7.79,-7.7962,-7.7984,-7.7714,-7.7714,-7.7714,0,-7.7096,-7.7198,-7.718,-7.7259,-7.7292,-7.7244,-7.7334,-7.736,-7.7413,-7.7437,-7.7395,-7.7519,-7.7539,-7.7657,-7.7699,-7.7722,-7.7745,-7.7697,-7.7881,-7.7899,-7.7915,-7.7973,-7.7996,-7.7721,-7.772,-7.7719,-7.7719,0,-7.7292,-7.7363,-7.743,-7.7487,-7.7527,-7.7611,-7.7605,-7.7648,-7.763,-7.7633,-7.7731,-7.7752,-7.781,-7.7837,-7.7818,-7.7954,-7.793,-7.7885,-7.781,-7.7946,-7.8001,-7.8023,-7.773,-7.7728,-7.7726,-7.7724,0,0,-7.7502,-7.755,-7.7575,-7.7601,-7.7641,-7.7695,-7.7776,-7.7835,-7.7872,-7.7911,-7.7978,-7.8064,-7.8024,-7.8054,-7.8038,-7.8096,-7.8231,-7.8045,-7.8045,-7.8079,-7.8383,-7.8417,-7.8443,-7.8207,-7.8211,-7.8215,-7.838,0,-7.7661,-7.7805,-7.7793,-7.7929,-7.7995,-7.7951,-7.8021,-7.8053,-7.8059,-7.8114,-7.8118,-7.8181,-7.8122,-7.814,-7.8196,-7.8203,-7.8292,-7.8191,-7.8269,-7.8272,-7.8263,-7.8471,-7.8507,-7.8662,-7.8401,-7.8405,-7.8407,0,-7.7865,-7.7915,-7.8059,-7.8091,-7.8118,-7.8182,-7.8236,-7.829,-7.8325,-7.8324,-7.836,-7.8335,-7.8415,-7.8339,-7.845,-7.8382,-7.8413,-7.8421,-7.8427,-7.8434,-7.8349,-7.8485,-7.8711,-7.8735,-7.844,-7.8438,-7.8435,0,-7.8006,-7.8108,-7.8208,-7.8231,-7.8271,-7.8317,-7.8335,-7.8367,-7.8403,-7.8449,-7.8473,-7.8527,-7.8557,-7.8599,-7.8588,-7.8534,-7.8703,-7.8625,-7.8704,-7.8705,-7.8742,-7.874,-7.8977,-7.8761,-7.8761,-7.876,-7.876,0,-7.8185,-7.8275,-7.8272,-7.8333,-7.8432,-7.8417,-7.8515,-7.8527,-7.8556,-7.8618,-7.8582,-7.864,-7.8623,-7.868,-7.8672,-7.8766,-7.8779,-7.8781,-7.8778,-7.8785,-7.8785,-7.8805,-7.8794,-7.8766,-7.8765,-7.8764,-7.8763,0,-7.8359,-7.836,-7.8466,-7.8497,-7.8507,-7.8579,-7.8603,-7.8661,-7.8664,-7.8743,-7.876,-7.8765,-7.8831,-7.8825,-7.8898,-7.8893,-7.901,-7.8993,-7.8999,-7.8995,-7.9076,-7.9069,-7.9335,-7.937,-7.9131,-7.9133,-7.9135,0,-7.8474,-7.8543,-7.8582,-7.8622,-7.8645,-7.8709,-7.8748,-7.8735,-7.8776,-7.8823,-7.8875,-7.8938,-7.8988,-7.9095,-7.9104,-7.916,-7.9145,-7.9234,-7.9153,-7.9158,-7.9147,-7.9144,-7.9151,-7.9251,-7.9253,-7.9255,-7.9257,0,-7.8678,-7.8676,-7.8734,-7.8793,-7.8841,-7.8886,-7.8927,-7.8961,-7.8953,-7.9,-7.9069,-7.9108,-7.9185,-7.9248,-7.9302,-7.9318,-7.9287,-7.9283,-7.9305,-7.9313,-7.9314,-7.9316,-7.9044,-7.9277,-7.9275,-7.9274,-7.9272,-7.9272,-7.8826,-7.8886,-7.8924,-7.899,-7.902,-7.906,-7.9116,-7.9128,-7.9186,-7.9249,-7.9237,-7.9315,-7.9349,-7.9418,-7.944,-7.95,-7.9467,-7.9498,-7.9506,-7.9514,-7.9524,-7.9304,-7.9509,-7.9509,-7.9508,-7.9508,-7.9507,0,-7.903,-7.9053,-7.9114,-7.9174,-7.9226,-7.9195,-7.9239,-7.9284,-7.9353,-7.9389,-7.944,-7.9519,-7.9581,-7.9596,-7.9654,-7.9699,-7.9686,-7.9715,-7.9712,-7.9717,-7.9549,-7.9525,-7.9725,-7.9725,-7.9725,-7.9725,-7.9725,-7.9725,-7.9142,-7.9242,-7.9245,-7.9359,-7.938,-7.9459,-7.9487,-7.9523,-7.9552,-7.9643,-7.9695,-7.9705,-7.9732,-7.9793,-7.9848,-7.9851,-7.9874,-7.991,-7.9906,-7.975,-7.9728,-7.9707,-7.9685,-7.9915,-7.9915,-8.0069,-8.007,-8.0071]}]]